Temperature
18 17 17 16 16 15 15 15 14 14 13 13 13 12 12 12 12 11 11 11 11 11 11 11 11 11 11 10 10 10 10 10 10 11 11 11 11 12 12 12 12 13 13
18 18 17 17 16 16 15 15 14 14 13 13 13 12 12 12 12 11 11 11 11 11 11 11 11 11 11 10 10 10 10 10 10 10 11 11 11 11 11 12 12 12 12
18 18 17 17 16 16 15 15 14 14 13 13 13 12 12 12 12 11 11 11 11 11 11 11 11 10 10 10 10 10 10 10 10 10 10 11 11 11 11 11 12 12 12
18 18 17 17 16 16 15 15 14 14 14 13 13 12 12 12 12 12 11 11 11 11 11 10 10 10 10 10 10 10 10 10 10 10 10 10 10 11 11 11 11 11 12
19 18 18 17 16 16 16 15 15 14 14 13 13 12 12 12 12 12 11 11 11 11 11 10 10 10 10 10 10 10 9 9 9 9 9 10 10 10 10 10 10 11 11
19 18 18 17 17 16 16 15 15 14 14 13 13 13 13 12 12 12 11 11 11 11 11 11 10 10 10 10 10 9 9 9 9 9 9 9 10 10 10 10 10 10 10
19 18 18 17 17 16 16 15 15 15 14 14 13 13 13 13 12 12 11 11 11 11 11 10 10 10 10 10 9 9 9 9 9 9 9 9 9 10 10 9 10 10 10
19 18 18 17 17 16 16 16 15 15 15 14 14 13 13 13 12 12 12 11 11 11 11 10 10 10 10 9 9 9 9 9 9 9 9 9 9 9 9 9 9 9 10
19 18 18 17 17 16 16 16 15 15 15 14 14 14 13 13 13 12 12 11 11 11 11 10 10 10 10 9 9 9 9 9 9 9 9 9 9 9 9 9 9 9 9
19 19 18 17 17 17 16 16 15 15 15 14 14 14 13 13 13 12 12 11 11 11 11 11 10 10 10 9 9 9 9 9 9 9 9 9 9 9 9 8 9 8 9
19 18 17 17 17 16 16 16 15 15 14 14 14 14 13 13 13 12 12 12 11 11 11 11 10 10 9 9 9 9 9 8 8 8 8 8 9 9 9 9 9 8 8
18 18 17 17 16 16 16 15 15 15 14 14 14 14 13 13 13 12 12 12 11 11 11 11 10 10 9 9 9 9 8 8 8 8 8 8 8 9 9 9 9 8 8
17 17 16 16 16 15 15 15 14 14 14 14 13 13 13 13 13 12 12 12 11 11 11 11 10 10 9 9 9 9 8 8 8 8 8 8 8 8 8 8 8 8 8
17 16 16 15 15 15 14 14 14 14 13 13 13 13 13 13 13 12 12 12 11 11 11 11 10 10 9 9 9 9 8 8 8 8 8 8 8 8 8 8 8 8 8
16 15 15 15 14 14 14 14 13 13 13 13 13 13 13 13 13 12 12 12 11 11 11 10 10 10 10 9 9 9 9 8 8 8 8 8 8 8 8 8 8 8 8
14 14 14 14 13 13 13 13 13 13 13 13 13 12 12 13 13 12 12 12 11 11 10 10 10 10 9 9 9 9 9 8 8 8 8 8 8 8 8 8 8 8 8
13 13 13 13 13 12 12 12 12 12 12 12 12 12 12 12 12 12 12 11 11 11 10 10 10 10 9 9 9 9 9 9 8 8 8 8 8 8 8 8 8 8 8
12 12 12 12 12 11 11 11 11 11 12 12 12 12 12 12 12 12 11 11 11 11 10 10 10 10 9 9 9 9 9 9 8 8 8 8 8 8 8 8 8 8 8
11 11 11 11 11 11 11 11 11 11 11 11 11 12 12 12 12 11 11 11 11 11 10 10 10 10 9 9 9 9 8 8 8 8 8 8 8 8 8 8 8 8 8
11 10 10 10 10 10 10 10 10 10 10 11 11 11 11 11 11 11 11 11 11 10 10 10 10 9 9 9 9 8 8 8 8 8 8 8 8 8 8 8 8 8 8
10 10 10 10 10 10 9 9 10 10 10 10 10 11 11 11 11 11 11 10 10 10 10 10 9 9 9 9 8 8 8 8 8 8 8 8 8 8 8 8 8 8 8
9 9 9 9 9 9 9 9 9 9 9 9 10 10 10 10 10 10 10 10 10 10 10 9 9 9 9 8 8 8 8 8 8 8 8 8 8 8 8 8 8 8 8
9 9 9 9 8 8 8 8 8 8 9 9 9 9 9 9 10 10 10 9 9 9 9 9 9 9 8 8 8 8 8 8 8 8 8 8 8 8 8 8 8 8 8
9 8 8 8 8 8 8 8 8 8 8 8 8 9 9 9 9 9 9 9 9 9 9 8 8 8 8 8 8 7 7 7 7 7 7 8 8 8 8 8 8 8 8
8 8 8 7 7 7 7 7 7 7 7 8 8 8 8 8 9 9 9 9 8 8 8 8 8 8 8 8 7 7 7 7 7 7 7 7 7 8 8 8 8 8 8
8 7 7 7 7 7 7 7 7 7 7 7 7 7 8 8 8 8 8 8 8 8 8 8 8 7 7 7 7 7 7 7 7 7 7 7 7 7 7 8 8 8 8
Wind_Speed
10 8 8 8 7 7 6 6 5 5 5 5 5 5 5 5 5 4 5 6 6 6 6 6 7 6 5 5 5 4 4 4 6 5 4 4 4 6 7 9 11 11 12
10 9 9 8 7 7 6 6 6 6 6 6 6 5 6 6 6 6 7 6 6 7 7 6 7 6 6 6 5 6 6 6 6 7 5 4 5 6 6 7 7 10 11
10 10 9 8 8 8 7 7 6 7 6 6 6 6 7 7 7 7 7 7 7 7 7 7 8 7 7 6 6 6 6 6 5 5 6 4 4 4 5 6 6 5 9
10 10 10 9 9 9 8 7 7 7 7 7 7 7 7 7 7 7 7 7 7 7 7 7 7 7 8 8 7 7 7 6 5 5 6 5 5 5 3 4 5 4 5
10 10 10 9 9 8 8 8 7 7 7 7 7 7 7 6 7 7 7 7 7 7 7 7 7 9 11 9 7 7 7 6 6 5 6 4 5 4 4 3 4 5 5
11 11 10 9 8 8 8 8 7 7 7 6 7 7 7 7 9 11 8 7 7 7 7 7 8 9 11 12 13 12 10 8 8 7 6 7 7 6 5 4 4 3 4
11 10 10 9 9 9 9 8 8 8 7 7 7 7 8 10 12 13 13 8 8 8 8 7 8 8 9 8 9 11 11 13 13 9 9 10 9 7 6 6 5 5 6
10 10 9 9 9 9 8 8 8 7 7 7 8 8 8 10 13 14 14 9 8 9 9 9 9 9 9 9 8 8 9 9 10 9 9 11 11 9 8 8 8 6 6
10 10 10 10 9 9 9 9 8 6 7 7 7 8 9 10 13 14 13 6 7 10 9 9 9 9 12 13 9 9 9 9 11 13 14 13 15 14 10 5 5 5 6
10 10 9 9 9 10 10 9 7 7 8 8 8 9 9 10 13 14 12 6 8 8 8 8 11 11 12 11 7 7 9 9 8 8 8 9 9 10 12 10 8 7 6
8 7 7 8 9 9 8 7 7 7 7 8 9 9 9 11 12 15 13 8 8 8 7 7 8 11 12 12 9 8 11 10 7 7 7 7 7 7 8 8 9 9 9
6 6 7 7 6 6 6 7 6 7 8 8 8 9 8 9 11 13 15 15 12 9 9 8 8 12 13 12 9 11 14 10 6 6 7 8 8 8 8 8 9 10 11
4 5 5 5 5 5 6 7 6 6 6 8 7 9 9 8 8 14 15 15 15 10 9 11 12 13 12 10 13 15 12 7 6 7 9 10 9 9 7 6 7 8 9
3 4 3 4 5 5 5 6 6 7 7 8 8 9 9 7 7 7 7 8 10 10 8 9 11 12 10 11 11 9 8 8 8 9 8 9 7 6 7 6 6 6 6
2 2 3 4 5 5 6 7 8 8 10 10 10 9 9 10 12 14 10 8 7 7 4 3 4 4 5 6 7 8 7 7 9 9 9 9 8 8 8 6 6 5 6
1 3 3 4 4 5 6 8 12 14 17 18 18 15 12 15 15 14 16 15 12 9 5 4 6 7 8 8 8 8 7 8 9 9 9 9 9 9 8 7 6 7 8
1 3 3 4 5 5 6 7 10 11 14 16 17 19 19 17 16 15 14 12 10 10 6 7 8 9 9 8 8 8 8 8 8 8 9 9 9 9 8 8 7 7 8
3 5 5 5 5 6 7 7 7 8 9 9 11 15 17 18 17 15 11 8 5 7 8 9 9 9 9 9 9 8 8 8 7 7 8 9 8 8 8 8 8 8 8
4 4 5 6 6 6 7 7 8 9 9 9 9 9 12 12 11 10 10 7 8 9 9 9 10 9 9 9 8 8 8 8 8 7 7 8 8 8 9 9 8 11 9
5 9 8 6 7 7 7 7 8 8 8 8 8 8 6 3 4 5 7 8 9 9 9 9 9 9 8 8 7 7 7 7 8 7 8 8 7 8 9 10 9 8 8
5 7 11 9 7 8 7 8 8 8 8 8 8 8 8 6 7 7 7 8 9 9 8 8 8 7 7 6 6 7 8 7 7 7 7 7 7 7 7 8 8 8 8
5 6 7 7 8 7 8 7 7 7 8 9 8 8 9 5 5 6 6 6 7 7 7 6 6 6 6 6 6 6 6 6 6 5 6 6 6 7 7 7 7 7 7
5 7 7 7 8 9 9 7 6 7 7 8 7 6 5 4 4 4 5 5 5 5 4 4 5 5 4 4 4 4 4 5 5 5 5 6 6 6 6 7 8 7 8
6 7 7 7 7 7 7 7 6 7 7 7 7 6 6 5 5 5 5 4 4 3 3 3 4 5 5 4 3 3 3 4 4 4 6 6 6 6 6 6 7 8 8
5 6 6 6 7 7 7 7 7 7 8 7 7 6 5 5 4 3 2 2 2 2 2 2 2 3 4 4 4 4 4 5 5 5 5 5 7 7 7 7 6 6 7
5 5 6 6 6 6 7 7 7 8 8 7 7 5 4 3 2 2 1 1 1 1 1 1 2 2 2 2 3 4 5 6 7 7 5 5 7 7 7 6 8 7 7
Wind_Direction
176 175 169 178 181 179 183 195 197 202 203 209 219 225 231 239 240 234 242 247 246 255 258 250 253 251 249 251 246 242 234 212 249 271 257 273 283 290 297 294 287 276 269
176 173 177 181 180 183 194 203 201 205 212 215 219 223 232 236 235 233 244 248 241 246 252 252 257 259 250 247 244 244 243 231 233 266 276 275 272 277 279 283 282 277 266
173 174 179 183 185 194 203 206 205 208 216 221 219 225 233 238 238 237 235 240 238 239 243 243 251 253 256 253 247 246 246 249 228 241 265 263 270 275 286 289 287 283 278
174 177 185 193 195 201 204 205 209 212 217 223 225 228 232 236 239 240 236 236 239 243 242 241 244 243 247 250 252 246 244 247 242 243 257 265 267 272 273 280 295 292 290
174 183 194 198 198 199 203 209 215 218 223 223 226 234 237 237 238 234 232 233 235 245 249 247 247 249 249 248 249 241 239 240 241 242 251 261 265 270 266 260 274 287 287
178 190 194 192 195 200 206 211 215 222 226 223 228 234 240 243 240 232 224 228 231 237 249 255 259 262 264 264 264 257 238 232 233 236 244 244 252 248 250 255 262 282 290
183 189 190 191 198 206 209 209 216 220 220 225 234 236 242 250 252 247 240 226 231 237 242 251 264 265 264 262 267 270 264 252 236 229 235 242 246 240 237 250 247 244 250
187 194 195 195 204 208 207 212 218 217 219 228 235 238 243 253 253 251 247 235 234 240 240 241 248 260 264 256 258 264 260 260 251 240 233 240 242 239 228 234 243 253 259
195 201 202 199 204 206 211 219 220 218 225 230 236 238 243 255 255 254 247 230 237 246 247 246 244 251 260 260 255 258 265 268 266 252 241 242 245 245 236 233 239 243 263
204 206 203 200 204 210 217 220 219 219 228 233 241 240 240 249 255 254 244 221 236 249 254 252 248 250 258 260 241 241 255 263 267 274 270 264 257 254 245 227 224 230 241
202 200 202 205 209 214 218 222 223 228 236 241 248 250 246 248 256 255 243 216 228 241 248 251 249 252 256 254 240 230 243 252 258 258 263 267 266 258 249 233 224 222 228
187 197 208 212 216 219 221 231 232 231 241 249 253 262 260 255 251 251 242 227 222 226 240 244 246 251 252 253 251 245 251 257 252 254 259 262 262 260 255 244 232 228 229
184 207 218 220 223 221 220 232 240 236 240 252 252 258 263 258 251 244 241 235 228 225 239 241 245 254 258 258 254 254 255 247 240 248 254 257 254 252 252 253 249 239 238
195 221 227 227 240 243 239 236 239 243 246 250 252 255 258 257 250 242 237 237 235 234 244 252 257 260 257 254 259 261 246 235 234 244 251 255 254 250 249 243 245 242 244
212 237 247 247 250 259 259 252 249 247 244 244 250 247 248 256 252 231 218 220 217 220 214 241 251 257 259 258 257 255 248 240 240 243 247 253 253 251 250 239 232 231 233
253 269 263 263 267 269 275 283 267 260 262 251 248 248 247 245 252 240 226 225 216 189 178 229 244 247 250 255 258 261 253 246 243 241 242 245 248 248 250 243 230 228 235
283 282 281 277 276 278 279 281 289 290 278 267 259 256 250 251 248 239 227 218 203 176 200 234 243 247 249 250 250 253 257 253 244 240 242 243 244 244 243 242 236 233 236
321 304 298 286 280 277 277 279 279 284 292 290 276 264 258 251 248 240 217 183 201 204 224 234 241 244 244 246 248 250 254 256 249 245 244 244 241 239 239 239 235 232 234
331 312 299 290 285 283 284 285 284 281 281 283 287 286 271 257 250 234 189 196 221 227 228 234 240 242 244 244 245 247 249 251 251 246 245 244 241 236 239 238 235 233 230
323 314 314 303 297 293 292 292 289 286 285 283 281 279 277 250 238 217 201 215 229 237 236 237 240 241 243 244 246 248 251 252 251 248 247 246 241 235 237 238 234 231 229
314 312 313 311 299 292 291 289 286 287 286 282 277 272 255 241 242 237 223 220 228 234 235 238 241 242 243 245 247 250 252 255 253 253 252 250 244 239 237 235 234 230 227
307 306 305 304 302 300 296 290 289 291 292 287 288 288 273 254 249 247 236 232 230 228 229 233 238 239 239 241 245 249 253 255 258 260 259 256 250 244 239 234 234 230 225
305 308 309 308 307 304 305 303 303 303 300 298 298 297 288 268 255 248 241 237 234 233 231 227 234 244 245 244 241 235 243 254 256 256 261 264 261 254 242 237 236 233 226
304 307 309 310 313 312 309 308 309 307 303 300 293 284 276 268 258 254 248 238 235 234 226 223 230 236 242 247 242 238 243 257 267 262 260 263 265 262 253 243 239 234 230
306 310 312 312 316 317 315 313 312 310 309 305 298 291 284 275 268 259 247 240 234 229 222 222 237 248 253 255 249 250 254 262 268 272 269 265 266 265 261 252 244 239 232
306 310 312 314 315 316 315 312 311 313 312 309 304 300 299 299 287 278 290 292 260 250 259 267 266 274 284 282 276 276 275 272 270 269 264 262 261 262 261 256 249 241 236
Height
1527 1527 1528 1529 1529 1529 1529 1529 1529 1529 1529 1529 1528 1528 1527 1527 1526 1525 1525 1524 1523 1523 1522 1521 1520 1520 1519 1519 1519 1518 1518 1517 1514 1513 1513 1513 1513 1513 1513 1513 1512 1512 1512
1523 1525 1525 1526 1526 1526 1526 1526 1526 1526 1526 1526 1525 1524 1524 1523 1523 1522 1521 1520 1520 1519 1518 1517 1516 1516 1515 1514 1514 1513 1513 1512 1511 1508 1508 1508 1508 1508 1507 1507 1507 1507 1506
1520 1521 1522 1523 1523 1523 1523 1523 1523 1523 1523 1522 1522 1521 1521 1520 1519 1518 1517 1516 1515 1515 1514 1513 1512 1511 1510 1509 1508 1508 1507 1507 1506 1504 1502 1502 1502 1502 1502 1501 1501 1501 1500
1517 1518 1518 1519 1520 1520 1520 1520 1520 1520 1519 1519 1518 1518 1517 1516 1515 1514 1513 1512 1511 1510 1509 1508 1507 1506 1504 1503 1502 1502 1501 1501 1500 1499 1498 1497 1497 1497 1497 1496 1495 1495 1495
1513 1514 1515 1516 1517 1517 1517 1517 1517 1516 1516 1515 1514 1514 1513 1512 1511 1510 1509 1507 1506 1505 1504 1503 1502 1500 1499 1498 1497 1496 1495 1495 1494 1493 1493 1492 1492 1491 1491 1491 1490 1489 1489
1509 1510 1512 1512 1513 1513 1513 1513 1513 1512 1512 1511 1510 1509 1508 1507 1506 1505 1504 1503 1502 1500 1499 1498 1496 1495 1493 1492 1491 1490 1489 1489 1488 1487 1487 1486 1486 1486 1486 1485 1485 1484 1483
1505 1506 1507 1508 1509 1509 1509 1509 1509 1508 1508 1507 1506 1504 1503 1502 1502 1501 1499 1498 1497 1495 1494 1492 1490 1489 1488 1486 1485 1484 1483 1483 1483 1482 1480 1480 1480 1480 1480 1480 1479 1479 1478
1501 1502 1503 1504 1505 1505 1505 1505 1504 1504 1503 1502 1501 1500 1498 1498 1497 1496 1494 1493 1491 1490 1488 1487 1485 1483 1482 1480 1479 1478 1477 1476 1476 1475 1474 1474 1474 1474 1474 1474 1473 1472 1472
1497 1498 1499 1500 1500 1500 1500 1500 1500 1499 1498 1497 1496 1495 1493 1492 1492 1490 1489 1487 1486 1484 1483 1481 1479 1478 1476 1475 1473 1471 1470 1470 1470 1469 1468 1467 1467 1467 1467 1467 1466 1466 1464
1492 1493 1495 1495 1496 1495 1495 1495 1495 1494 1493 1492 1490 1489 1488 1487 1486 1485 1484 1482 1480 1479 1477 1475 1474 1472 1470 1469 1467 1466 1464 1463 1463 1462 1461 1461 1460 1460 1460 1460 1460 1459 1458
1489 1490 1490 1491 1491 1491 1491 1490 1490 1489 1487 1486 1485 1484 1483 1481 1480 1479 1478 1476 1474 1472 1470 1469 1468 1466 1464 1463 1461 1460 1458 1457 1456 1455 1454 1453 1453 1452 1452 1452 1452 1452 1452
1485 1485 1486 1486 1486 1486 1486 1485 1484 1483 1482 1480 1479 1477 1476 1475 1474 1472 1471 1470 1468 1466 1464 1462 1461 1460 1458 1456 1455 1453 1452 1451 1449 1447 1446 1445 1445 1444 1444 1444 1444 1444 1444
1481 1481 1481 1481 1481 1481 1480 1479 1478 1477 1476 1474 1473 1471 1469 1468 1467 1466 1464 1463 1461 1460 1458 1456 1455 1453 1451 1449 1448 1447 1446 1444 1442 1440 1438 1437 1437 1437 1436 1436 1436 1437 1437
1477 1477 1477 1477 1476 1475 1474 1473 1472 1471 1469 1467 1466 1464 1462 1461 1460 1458 1457 1456 1454 1453 1451 1449 1448 1446 1444 1443 1441 1440 1438 1437 1435 1433 1431 1430 1430 1429 1429 1429 1429 1429 1429
1474 1473 1473 1472 1471 1470 1469 1467 1465 1464 1463 1461 1459 1457 1455 1453 1452 1451 1450 1448 1447 1446 1444 1443 1441 1439 1437 1436 1434 1432 1431 1430 1428 1426 1425 1423 1422 1422 1421 1422 1422 1422 1422
1470 1469 1468 1467 1465 1464 1462 1460 1458 1457 1455 1453 1451 1449 1447 1446 1444 1443 1442 1441 1440 1439 1437 1435 1434 1432 1430 1428 1427 1425 1424 1422 1421 1419 1418 1417 1415 1415 1414 1415 1415 1415 1415
1466 1464 1463 1461 1460 1458 1456 1453 1449 1447 1446 1444 1442 1441 1439 1437 1436 1435 1434 1433 1432 1431 1429 1428 1426 1425 1423 1421 1420 1418 1416 1415 1414 1412 1411 1410 1409 1408 1407 1407 1407 1408 1408
1462 1461 1459 1456 1454 1452 1449 1446 1443 1440 1437 1435 1434 1432 1430 1429 1427 1427 1426 1425 1423 1423 1421 1420 1419 1417 1416 1414 1413 1411 1410 1408 1407 1406 1404 1403 1402 1401 1400 1400 1400 1401 1401
1459 1456 1454 1451 1448 1446 1443 1439 1436 1433 1430 1427 1425 1423 1422 1421 1419 1419 1417 1416 1415 1415 1414 1412 1411 1410 1408 1407 1405 1404 1403 1401 1400 1398 1397 1396 1395 1395 1394 1393 1393 1394 1394
1455 1452 1449 1446 1443 1439 1436 1433 1429 1426 1423 1420 1418 1416 1415 1414 1412 1411 1410 1409 1408 1407 1406 1405 1404 1403 1401 1400 1398 1397 1396 1394 1393 1391 1390 1389 1389 1388 1387 1387 1387 1387 1387
1451 1447 1444 1440 1437 1433 1429 1426 1423 1420 1417 1414 1411 1409 1408 1406 1404 1404 1403 1401 1401 1400 1399 1398 1397 1396 1395 1393 1392 1390 1389 1387 1386 1385 1384 1383 1382 1381 1381 1380 1380 1380 1381
1446 1442 1438 1434 1430 1427 1423 1420 1416 1413 1410 1407 1404 1402 1400 1398 1397 1396 1395 1395 1394 1393 1392 1391 1390 1389 1388 1387 1386 1384 1382 1381 1380 1379 1378 1377 1376 1375 1375 1374 1374 1374 1375
1441 1437 1433 1429 1425 1421 1418 1414 1411 1407 1404 1401 1398 1395 1393 1392 1391 1390 1389 1389 1388 1387 1386 1385 1385 1384 1382 1381 1379 1378 1377 1375 1374 1373 1372 1371 1370 1369 1369 1368 1368 1368 1369
1437 1432 1428 1424 1420 1416 1412 1409 1405 1402 1398 1395 1392 1390 1388 1386 1385 1385 1384 1384 1383 1382 1381 1380 1379 1378 1377 1375 1374 1372 1371 1370 1369 1368 1367 1365 1364 1363 1363 1363 1362 1362 1363
1432 1428 1424 1420 1416 1412 1408 1404 1400 1397 1393 1390 1387 1384 1382 1381 1381 1380 1379 1379 1378 1378 1377 1376 1375 1374 1372 1370 1369 1367 1366 1364 1363 1362 1361 1360 1359 1358 1357 1357 1357 1357 1358
1427 1423 1419 1415 1411 1407 1403 1399 1396 1392 1389 1385 1382 1380 1378 1377 1376 1376 1375 1375 1374 1374 1373 1372 1371 1369 1368 1366 1364 1362 1361 1359 1357 1356 1355 1354 1353 1352 1352 1351 1351 1352 1352